Regional Weather Roundup
Issued by NWS

Home | Current Version | Previous Version | Graphics & Text | Print | Product List | Glossary On
Versions: 1 2 3 4 5 6 7 8 9 10 11 12 13 14 15 16 17 18 19 20 21 22 23 24 25 26 27 28 29 30 31 32 33 34 35 36 37 38 39 40 41 42 43 44 45 46 47 48 49 50
000
ASUS45 KCYS 191510
RWRWY

WYOMING REGIONAL WEATHER ROUNDUP
NATIONAL WEATHER SERVICE CHEYENNE WY
800 AM MST MON FEB 19 2018

NOTE:  "FAIR" INDICATES FEW OR NO CLOUDS BELOW 12,000 FEET
WITH NO SIGNIFICANT WEATHER AND/OR OBSTRUCTIONS TO VISIBILITY.

WYZ001-191600-
YELLOWSTONE NATIONAL PARK

CITY           SKY/WX    TMP DP  RH WIND       PRES   REMARKS
LK YELLOWSTONE   N/A     -2  -6  83 CALM      29.46R
W YELLOWSTONE  NOT AVBL

$$
WYZ002>013-054>058-071-098>099-191600-
NORTHERN WYOMING

CITY           SKY/WX    TMP DP  RH WIND       PRES   REMARKS
JACKSON        MOCLDY     9   4  80 N13       29.46S WCI  -7
CODY           FLURRIES  -6 -11  79 NE10      29.79R WCI -24
GREYBULL       MOCLDY     0  -5  79 NW16      29.86S WCI -20
WORLAND        LGT SNOW   1  -4  79 N10       29.83R WCI -15
SHERIDAN       LGT SNOW   0  -4  83 N3        29.92R FOG
BUFFALO        SNOW      -1  -6  79 N5        29.81R VSB 1/2 WCI -11
GILLETTE       LGT SNOW  -1  -5  82 N10       29.86R VSB 1   WCI -17
HULETT         LGT SNOW   1  -6  71 MISG      29.90R
NEWCASTLE      LGT SNOW   1  -4  78 SE7       29.87S VSB 1   WCI -11

$$
WYZ014>020-022>026-101>103-191600-
CENTRAL WYOMING

CITY           SKY/WX    TMP DP  RH WIND       PRES   REMARKS
BIG PINEY      LGT SNOW  10   7  87 SW8       29.43R VSB 3/4 WCI  -2
PINEDALE       LGT SNOW  12   9  85 W7        29.43R WCI   2
DUBOIS         NOT AVBL
LANDER         LGT SNOW   1  -3  83 CALM      29.66R FOG
RIVERTON       LGT SNOW   1  -5  75 NE5       29.68R VSB 1   WCI  -9
CASPER         SNOW      -3  -6  87 N20       29.73R VSB 1/2 WCI -26
DOUGLAS        LGT SNOW   2  -3  80 E7        29.77R WCI -11

$$
WYZ021-027>030-104>119-191600-
SOUTHERN WYOMING

CITY           SKY/WX    TMP DP  RH WIND       PRES   REMARKS
EVANSTON       LGT SNOW  16  14  92 E12       29.35R VSB 3/4 WCI   3
ROCK SPRINGS   LGT SNOW   2  -4  76 NE22      29.44R VSB 1   WCI -20
DIXON          SNOW       6   1  79 NW21      29.43R VSB 1/4 WCI -15
RAWLINS        HAZE       0  -5  79 NE20G28   29.45S VSB 1   WCI -22
SARATOGA       HVY SNOW   3   1  92 W13       29.38S VSB<1/4 WCI -14
LARAMIE        CLOUDY     6   3  87 SE28G41   29.40F BLWGSNOWWCI -17
CHEYENNE       LGT SNOW   3   0  87 E6        29.65R FOG     WCI  -8
TORRINGTON     CLOUDY     4  -1  80 NE12      29.84F WCI -12
PINE BLUFFS    CLOUDY     5   1  85 NE8       29.74S WCI  -8

$$



USA.gov is the U.S. government's official web portal to all federal, state and local government web resources and services.